Kelso, MO

11:41 AM CST on February 08, 2016 (GMT -0600)
Cape Girardeau Regional

Weather History for KCGI - February, 2014

Change the Weather History Date:

Wednesday, February 19, 2014

  Actual Average Record
Temperature  
Mean Temperature 48 °F 39 °F  
Max Temperature 58 °F 49 °F 71 °F (1994)
Min Temperature 37 °F 29 °F -14 °F (2015)
Degree Days  
Heating Degree Days 17 26  
Month to date heating degree days 694 540  
Since 1 July heating degree days 3678 3278  
Cooling Degree Days 0 0  
Month to date cooling degree days 0 0  
Year to date cooling degree days 0 0  
Moisture  
Dew Point 39 °F    
Average Humidity 72    
Maximum Humidity 100    
Minimum Humidity 43    
Precipitation  
Precipitation 0.00 in 0.12 in 1.29 in (2002)
Month to date precipitation 0.99 2.33  
Year to date precipitation 2.99 5.80  
Sea Level Pressure  
Sea Level Pressure 29.92 in    
Wind  
Wind Speed 7 mph (SW)    
Max Wind Speed 16 mph    
Max Gust Speed 20 mph    
Visibility 6 miles    
Events Fog    
T = Trace of Precipitation, MM = Missing Value Source: NWS Daily Summary

Daily Weather History Graph

Daily Weather History Graph

Search for Another Location

Airport or City:

Trip Planner

Search our weather history database for the weather conditions in past years. The results will help you decide how hot, cold, wet, or windy it might be!

Date:

Astronomy

Feb. 19, 2014 Rise Set
Actual Time 6:42 AM CST 5:42 PM CST
Civil Twilight 6:15 AM CST 6:08 PM CST
Nautical Twilight 5:45 AM CST 6:39 PM CST
Astronomical Twilight 5:15 AM CST 7:09 PM CST
Moon 10:28 PM CST (2/19) 8:55 AM CST (2/19)
Length of Visible Light 11h 52m
Length of Day
10h 59m
Waning Gibbous, 79% of the Moon is Illuminated
Feb 19
Waning Gibbous
Feb 22
Last Quarter
Mar 1
New
Mar 8
First Quarter
Mar 16
Full

Hourly Weather History & Observations

Time (CST) Temp. Windchill Dew Point Humidity Pressure Visibility Wind Dir Wind Speed Gust Speed Precip Events Conditions
12:37 AM 52.0 °F - 50.0 °F 93% 29.82 in 2.0 mi WSW 12.7 mph - N/A   Partly Cloudy
12:53 AM 53.1 °F - 51.1 °F 93% 29.83 in 3.0 mi WSW 13.8 mph - N/A   Clear
1:12 AM 50.0 °F - 48.9 °F 96% 29.83 in 1.5 mi West 6.9 mph 20.7 mph N/A   Partly Cloudy
1:14 AM 46.9 °F - 46.9 °F 100% 29.83 in 0.8 mi West 8.1 mph 20.7 mph N/A   Mist
1:24 AM 46.0 °F 41.0 °F 45.0 °F 96% 29.83 in 0.2 mi West 10.4 mph - N/A Fog Fog
1:53 AM 46.9 °F - 46.9 °F 100% 29.84 in 0.2 mi West 11.5 mph - N/A Fog Fog
2:37 AM 45.0 °F 40.1 °F 45.0 °F 100% 29.87 in 0.2 mi West 9.2 mph - N/A Fog Fog
2:53 AM 45.0 °F 40.6 °F 45.0 °F 100% 29.87 in 0.2 mi West 8.1 mph - N/A Fog Fog
3:30 AM 43.0 °F 37.7 °F 42.1 °F 97% 29.89 in 0.2 mi West 9.2 mph - N/A Fog Fog
3:42 AM 42.1 °F 37.1 °F 42.1 °F 100% 29.89 in 1.0 mi West 8.1 mph - N/A   Mist
3:53 AM 39.9 °F 35.1 °F 39.9 °F 100% 29.91 in 0.8 mi West 6.9 mph - N/A   Mist
3:56 AM 39.9 °F 34.5 °F 39.9 °F 100% 29.91 in 1.0 mi West 8.1 mph - N/A   Clear
4:03 AM 39.9 °F 34.5 °F 39.9 °F 100% 29.91 in 3.0 mi West 8.1 mph - N/A   Clear
4:53 AM 41.0 °F 39.0 °F 35.1 °F 79% 29.93 in 10.0 mi WNW 3.5 mph - N/A   Clear
5:53 AM 37.9 °F 34.4 °F 32.0 °F 79% 29.97 in 10.0 mi WSW 4.6 mph - N/A   Clear
6:53 AM 37.9 °F 35.5 °F 30.9 °F 76% 29.99 in 10.0 mi WNW 3.5 mph - N/A   Clear
7:53 AM 39.9 °F 36.7 °F 32.0 °F 73% 30.02 in 10.0 mi WSW 4.6 mph - N/A   Clear
8:53 AM 46.0 °F 44.8 °F 37.0 °F 71% 30.04 in 10.0 mi North 3.5 mph - N/A   Clear
9:53 AM 50.0 °F - 37.0 °F 61% 30.03 in 10.0 mi North 9.2 mph - N/A   Clear
10:53 AM 52.0 °F - 36.0 °F 54% 30.06 in 10.0 mi South 4.6 mph - N/A   Clear
11:53 AM 54.0 °F - 35.1 °F 49% 30.06 in 10.0 mi Calm Calm - N/A   Clear
12:53 PM 55.0 °F - 36.0 °F 49% 30.03 in 10.0 mi Calm Calm - N/A   Clear
1:53 PM 55.9 °F - 34.0 °F 44% 30.00 in 10.0 mi South 3.5 mph - N/A   Clear
2:53 PM 57.0 °F - 37.9 °F 49% 29.99 in 10.0 mi SSE 8.1 mph - N/A   Clear
3:53 PM 55.0 °F - 39.9 °F 57% 29.96 in 10.0 mi SE 8.1 mph - N/A   Clear
4:53 PM 52.0 °F - 39.9 °F 63% 29.96 in 10.0 mi SE 5.8 mph - N/A   Clear
5:53 PM 48.0 °F - 36.0 °F 63% 29.96 in 10.0 mi East 6.9 mph - N/A   Clear
6:53 PM 46.0 °F 43.9 °F 35.1 °F 66% 29.94 in 10.0 mi East 4.6 mph - N/A   Clear
7:53 PM 45.0 °F 42.6 °F 34.0 °F 65% 29.92 in 10.0 mi ENE 4.6 mph - N/A   Scattered Clouds
8:53 PM 50.0 °F - 36.0 °F 59% 29.91 in 10.0 mi East 6.9 mph - N/A   Overcast
9:53 PM 48.9 °F - 37.0 °F 64% 29.87 in 10.0 mi ESE 10.4 mph - N/A   Overcast
10:53 PM 50.0 °F - 37.9 °F 63% 29.83 in 10.0 mi SE 11.5 mph - N/A   Overcast
11:53 PM 50.0 °F - 37.9 °F 63% 29.80 in 10.0 mi SE 11.5 mph - N/A   Overcast